CW3081 Weather Reports


Display with metric or nautical units.
time (UTC)temp
F
wind
direction
speed
MPH
gust
MPH
rain 1hr
in
rain 24hr
in
rain mn
in
humidity
%
barometer
mb
20260510130045 62 0 0.0 1.0 0.00 0.00 0.00 97 1016.2
20260510124546 60 0 0.0 0.0 0.00 0.00 0.00 97 1016.0
20260510123042 59 0 0.0 0.0 0.00 0.00 0.00 96 1016.0
20260510121541 58 0 0.0 0.0 0.00 0.00 0.00 96 1015.9
20260510120041 0 0.0 0.0 0.00 0.00 0.00 1015.6
20260510114546 0 0.0 0.0 0.00 0.00 0.00 1015.3
20260510113043 0 0.0 0.0 0.00 0.00 0.00 1014.9
20260510111553 0 0.0 0.0 0.00 0.00 0.00 1014.7
20260510110041 0 0.0 0.0 0.00 0.00 0.00 1014.5
20260510104605 0 0.0 0.0 0.00 0.00 0.00 1014.3
20260510103045 55 0 0.0 0.0 0.00 0.00 0.00 94 1014.2
20260510101544 55 0 0.0 0.0 0.00 0.00 0.00 93 1014.0
20260510100042 55 0 0.0 0.0 0.00 0.00 0.00 93 1014.0
20260510094548 55 0 0.0 0.0 0.00 0.00 0.00 93 1013.9
20260510093041 55 0 0.0 0.0 0.00 0.00 0.00 92 1013.9
20260510091545 55 0 0.0 0.0 0.00 0.00 0.00 92 1013.8
20260510090042 54 0 0.0 0.0 0.00 0.00 0.00 91 1013.8
20260510084540 54 0 0.0 0.0 0.00 0.00 0.00 92 1013.7
20260510083050 54 0 0.0 0.0 0.00 0.00 0.00 91 1013.8
20260510081600 54 0 0.0 0.0 0.00 0.00 0.00 91 1013.7
20260510080046 53 0 0.0 1.0 0.00 0.00 0.00 91 1013.7
20260510074543 53 0 0.0 1.0 0.00 0.00 0.00 91 1013.3
20260510073041 53 0 0.0 1.0 0.00 0.00 0.00 92 1013.1
20260510071550 52 251 0.0 2.0 0.00 0.00 0.00 91 1013.1
20260510070055 53 0 0.0 0.0 0.00 0.00 0.00 91 1013.0
20260510064540 53 0 0.0 0.0 0.00 0.00 0.00 91 1013.0
20260510063046 53 0 0.0 0.0 0.00 0.00 0.00 90 1013.0
20260510061549 54 0 0.0 0.0 0.00 0.00 0.00 90 1012.9
20260510060054 54 0 0.0 0.0 0.00 0.00 0.00 90 1013.0
20260510054549 54 0 0.0 0.0 0.00 0.00 0.00 91 1013.0
20260510053050 54 0 0.0 0.0 0.00 0.00 0.00 90 1013.0
20260510051618 54 0 0.0 0.0 0.00 0.00 0.00 90 1013.0
20260510050051 55 0 0.0 0.0 0.00 0.00 0.00 90 1012.9
20260510044545 55 0 0.0 0.0 0.00 0.00 0.00 89 1012.9
20260510043132 56 0 0.0 0.0 0.00 0.00 0.00 89 1013.0
20260510041552 56 0 0.0 0.0 0.00 0.00 0.00 88 1013.0
20260510040050 57 0 0.0 0.0 0.00 0.00 0.00 88 1013.1
20260510034553 57 0 0.0 0.0 0.00 0.00 0.00 87 1012.9
20260510033050 57 0 0.0 0.0 0.00 0.00 0.00 87 1012.9
20260510031613 58 0 0.0 0.0 0.00 0.00 0.00 86 1012.9
20260510030047 59 0 0.0 0.0 0.00 0.00 0.00 85 1012.7
20260510024545 59 0 0.0 0.0 0.00 0.00 0.00 85 1012.5
20260510023054 60 0 0.0 0.0 0.00 0.00 0.00 82 1012.2
20260510021549 61 0 0.0 0.0 0.00 0.00 0.00 81 1012.2
20260510020049 62 0 0.0 0.0 0.00 0.00 0.00 80 1012.2
20260510014547 63 0 0.0 0.0 0.00 0.00 0.00 79 1012.1
20260510013042 64 0 0.0 0.0 0.00 0.00 0.00 77 1011.6
20260510011603 65 0 0.0 0.0 0.00 0.00 0.00 76 1011.5
20260510010058 66 0 0.0 0.0 0.00 0.00 0.00 74 1011.3
20260510004545 68 0 0.0 0.0 0.00 0.00 0.00 72 1011.2
20260510003042 69 0 0.0 0.0 0.00 0.00 0.00 71 1011.2
20260510001547 70 0 0.0 0.0 0.00 0.00 0.00 67 1011.2
20260510000047 72 0 0.0 0.0 0.00 0.00 0.00 63 1011.1
20260509234546 73 0 0.0 0.0 0.00 0.00 0.00 61 1011.0
20260509233044 74 0 0.0 0.0 0.00 0.00 0.00 54 1010.9
20260509231557 74 0 0.0 0.0 0.00 0.00 0.00 53 1010.8
20260509230054 75 0 0.0 0.0 0.00 0.00 0.00 52 1010.8
20260509224548 75 0 0.0 1.0 0.00 0.00 0.00 49 1010.6
20260509223047 75 0 0.0 0.0 0.00 0.00 0.00 52 1010.6
20260509221550 76 0 0.0 0.0 0.00 0.00 0.00 51 1010.4
20260509220049 76 0 0.0 1.0 0.00 0.00 0.00 53 1010.5
20260509214548 76 221 0.0 1.0 0.00 0.00 0.00 51 1010.4
20260509213101 76 0 0.0 1.0 0.00 0.00 0.00 54 1010.3
20260509211610 76 250 1.0 2.0 0.00 0.00 0.00 51 1010.3
20260509210053 76 247 0.0 2.0 0.00 0.00 0.00 49 1010.2
20260509204557 76 278 0.0 1.0 0.00 0.00 0.00 51 1010.3
20260509203057 76 0 0.0 2.0 0.00 0.00 0.00 50 1010.2
20260509201538 75 261 0.0 2.0 0.00 0.00 0.00 53 1010.2
20260509200050 75 351 1.0 2.0 0.00 0.00 0.00 53 1010.5
20260509194547 75 124 0.0 2.0 0.00 0.00 0.00 53 1010.7
20260509193044 76 336 0.0 3.0 0.00 0.00 0.00 55 1010.8
20260509191544 76 0 0.0 2.0 0.00 0.00 0.00 55 1010.9
20260509190047 75 329 0.0 3.0 0.00 0.00 0.00 58 1011.0
20260509184543 75 341 1.0 2.0 0.00 0.00 0.00 57 1011.1
20260509183049 74 279 1.0 2.0 0.00 0.00 0.00 59 1011.1
20260509181604 74 0 0.0 1.0 0.00 0.00 0.00 59 1010.9
20260509180047 73 0 0.0 2.0 0.00 0.00 0.00 62 1010.8
20260509174542 74 100 0.0 1.0 0.00 0.00 0.00 63 1010.8
20260509173057 73 323 0.0 2.0 0.00 0.00 0.00 61 1010.8
20260509171539 72 262 1.0 2.0 0.00 0.00 0.00 61 1010.8
20260509170047 72 25 0.0 1.0 0.00 0.00 0.00 66 1010.9
20260509164551 71 326 0.0 1.0 0.00 0.00 0.00 66 1011.0
20260509163058 70 82 1.0 3.0 0.00 0.00 0.00 69 1011.1
20260509161542 70 32 0.0 1.0 0.00 0.00 0.00 72 1011.0
20260509160051 69 349 1.0 2.0 0.00 0.00 0.00 73 1011.2
20260509154545 68 312 0.0 2.0 0.00 0.00 0.00 74 1011.1
20260509153041 67 0 0.0 2.0 0.00 0.00 0.00 77 1010.9
20260509151545 66 0 0.0 3.0 0.00 0.00 0.00 78 1010.8
20260509150042 65 281 0.0 2.0 0.00 0.00 0.00 79 1010.8
20260509144544 64 252 0.0 1.0 0.00 0.00 0.00 81 1010.7
20260509143040 64 30 0.0 3.0 0.00 0.00 0.00 82 1010.6
20260509141550 63 281 1.0 3.0 0.00 0.00 0.00 83 1010.5
20260509140119 62 284 0.0 2.0 0.00 0.00 0.00 84 1010.5
20260509134551 61 282 1.0 3.0 0.00 0.00 0.00 85 1010.6
20260509133057 61 202 0.0 3.0 0.00 0.00 0.00 86 1010.3
20260509131549 60 262 1.0 2.0 0.00 0.00 0.00 87 1010.5